Location: Woodhurst
(52.3667°N, 0.0667°W)
Time: 20:47:38
(UTC+00:00)

DELTA 2 DEB (DPAF) - Pass Details

Date: 19 May 2025
Orbit: 538 x 548 km, 98.4° (Epoch: 18 June)

Event Time Altitude Azimuth Distance (km) Brightness Sun altitude
Rises 22:38:36 0° 11° (NNE) 2,734 8.4 -15.7°
Reaches altitude 10° 22:40:46 10° 7° (N) 1,833 7.5 -15.8°
Maximum altitude 22:44:37 54° 290° (WNW) 673 4.4 -16.0°
Enters shadow 22:47:32 16° 217° (SW) 1,450 5.6 -16.1°
